Flag for Switzerland Weather past 2 weeks in Versoix, Geneva, Switzerland

Now
72 °F

Partly sunny.


Feels Like: 74 °F
Forecast: 59 / 74 °F
Wind: 2 mph from North

Location: Chambery / Aix-Les-Bains

Current Time: Jul 23, 2014 at 11:57:49 AM

Latest Report: Jul 23, 2014 at 11:30 AM


Visibility: N/A

Pressure: 29.92 "Hg

Humidity: 73%

Dew point: 63 °F

Location of VersoixLocation

Historic Weather in Versoix — Graph

°F

Versoix temperature yesterday

Maximum temperature yesterday: 72 °F (at 4:00 PM)
Minimum temperature yesterday: 61 °F (at 3:30 AM)
Average temperature yesterday: 66 °F

Past Weeks' High & Low Weather Summary

 TemperatureHumidityPressure
High90 °F (Jul 17, 5:30 PM)100% (Jul 9, 11:30 PM)30.18 "Hg (Jul 9, 11:30 PM)
Low54 °F (Jul 10, 3:00 AM)35% (Jul 18, 3:00 PM)29.83 "Hg (Jul 19, 8:00 PM)
Average65 °F82%30.01 "Hg
* Reported Jul 8 10:00 AM — Jul 23 10:00 AM, Versoix, Weather by CustomWeather, © 2014

Note: Actual official high and low records may vary slightly from our data, if they occured in-between our weather recording intervals... More about our weather records

Advertising

Versoix weather history for previous 24 hours

 ConditionsComfort  
Time TempWeatherWind HumidityBarometerVisibility
10:00 AM
Jul 23
70 °FBroken clouds.3 mph78%29.92 "HgN/A
8:00 AM66 °FPartly sunny.3 mph88%29.92 "HgN/A
7:30 AM64 °FPartly sunny.2 mph94%29.92 "HgN/A
7:00 AM64 °FPassing clouds.2 mph94%29.92 "HgN/A
6:30 AM64 °FPassing clouds.2 mph88%29.92 "HgN/A
6:00 AM64 °FPartly cloudy.3 mph94%29.92 "HgN/A
5:30 AM64 °FMostly cloudy.3 mph94%29.92 "HgN/A
5:00 AM64 °FOvercast.2 mph94%29.92 "HgN/A
4:30 AM64 °FOvercast.2 mph94%29.92 "HgN/A
4:00 AM64 °FMostly cloudy.No wind94%29.92 "HgN/A
3:30 AM64 °FOvercast.3 mph94%29.92 "HgN/A
3:00 AM66 °FMostly cloudy.3 mph94%29.95 "HgN/A
2:30 AM66 °FMostly cloudy.1 mph88%29.95 "HgN/A
2:00 AM66 °FOvercast.3 mph88%29.95 "HgN/A
1:00 AM66 °FOvercast.3 mph88%29.98 "HgN/A
7:00 PM
Jul 22
68 °FMostly cloudy.7 mph83%29.98 "HgN/A
6:30 PM70 °FMore clouds than sun.2 mph78%29.98 "HgN/A
6:00 PM70 °FPartly sunny.No wind78%29.98 "HgN/A
5:30 PM70 °FPartly sunny.3 mph73%29.98 "HgN/A
5:00 PM70 °FPartly sunny.2 mph73%29.98 "HgN/A
4:30 PM72 °FBroken clouds.2 mph69%29.98 "HgN/A
4:00 PM72 °FBroken clouds.1 mph73%29.98 "HgN/A
3:30 PM70 °FBroken clouds.2 mph73%29.98 "HgN/A
3:00 PM70 °FBroken clouds.2 mph73%29.98 "HgN/A
2:30 PM70 °FBroken clouds.3 mph73%30.01 "HgN/A
2:00 PM70 °FBroken clouds.3 mph73%30.01 "HgN/A
1:30 PM68 °FBroken clouds.5 mph78%30.01 "HgN/A
1:00 PM68 °FBroken clouds.7 mph78%30.01 "HgN/A
12:30 PM68 °FBroken clouds.6 mph73%30.01 "HgN/A
12:00 PM68 °FBroken clouds.No wind78%30.01 "HgN/A
11:30 AM66 °FPartly sunny.2 mph83%30.01 "HgN/A
11:00 AM66 °FPartly sunny.1 mph83%30.01 "HgN/A
Weather by CustomWeather, © 2014

See weather overviewHow to use our weather pages